Location: Unspecified
(0.0000°N, 0.0000°E)
Time: 23:25:36
(UTC+00:00)

Vanguard 1 - Pass Details

Date: 02 October 2020
Orbit: 649 x 3833 km, 34.3° (Epoch: 28 October)

Event Time Altitude Azimuth Distance (km) Brightness Sun altitude
Rises 06:52:31 0° 269° (W) 4,446 12.8 15.8°
Reaches altitude 10° 06:55:32 10° 258° (WSW) 3,836 12.6 16.5°
Maximum altitude 07:04:30 30° 201° (SSW) 3,525 12.9 18.8°
Drops below altitude 10° 07:18:56 10° 147° (SSE) 6,176 14.8 22.4°
Sets 07:25:49 0° 137° (SE) 7,614 15.3 24.1°
